FW0472 Weather Reports


time (UTC)temp
C
wind
direction
speed
KPH
gust
KPH
rain 1hr
cm
rain 24hr
cm
rain mn
cm
humidity
%
barometer
mb
20260506231937 10 324 0.0 0.0 0.00 0.89 0.89 99 1032.4
20260506231436 10 323 0.0 0.0 0.00 0.89 0.89 99 1032.3
20260506230932 10 326 0.0 0.0 0.00 0.89 0.89 99 1032.3
20260506230428 10 330 1.6 1.6 0.00 0.89 0.89 99 1032.1
20260506225925 10 357 1.6 1.6 0.13 0.89 0.89 99 1032.0
20260506225423 10 344 1.6 1.6 0.18 0.86 0.86 99 1032.1
20260506224920 10 332 1.6 3.2 0.18 0.86 0.86 99 1032.1
20260506224417 11 328 0.0 0.0 0.00 0.84 0.84 99 1032.0
20260506223913 11 328 0.0 0.0 0.00 0.84 0.84 99 1032.1
20260506223408 11 331 0.0 0.0 0.00 0.84 0.84 99 1032.0
20260506222906 11 328 0.0 0.0 0.00 0.84 0.84 99 1031.9
20260506222402 11 329 0.0 0.0 0.00 0.84 0.84 99 1031.8
20260506221900 11 313 1.6 1.6 0.00 0.84 0.84 99 1031.8
20260506221356 12 320 0.0 0.0 0.00 0.84 0.84 99 1031.6
20260506220854 12 319 0.0 0.0 0.00 0.84 0.84 99 1031.7
20260506220349 11 324 0.0 0.0 0.00 0.84 0.84 99 1031.7
20260506215846 12 340 0.0 0.0 0.00 0.84 0.84 99 1031.4
20260506215342 12 325 0.0 0.0 0.00 0.84 0.84 99 1031.5
20260506214838 12 326 0.0 0.0 0.00 0.84 0.84 99 1031.4
20260506214335 13 327 0.0 0.0 0.00 0.84 0.84 99 1031.5
20260506213833 13 311 0.0 0.0 0.00 0.84 0.84 99 1031.1
20260506213330 13 319 0.0 1.6 0.00 0.84 0.84 99 1031.4
20260506212828 13 335 1.6 1.6 0.00 0.84 0.84 99 1031.0
20260506212323 13 318 0.0 1.6 0.13 0.84 0.84 99 1031.0
20260506211818 15 274 1.6 1.6 0.61 0.84 0.84 99 1031.2
20260506211315 15 295 1.6 1.6 0.66 0.81 0.81 99 1031.1
20260506210813 15 305 0.0 1.6 0.30 0.74 0.74 99 1031.0
20260506210309 15 25 0.0 1.6 0.13 0.71 0.71 99 1030.8
20260506205806 15 338 0.0 0.0 0.30 0.71 0.71 99 1030.9
20260506205305 15 0 1.6 1.6 0.18 0.69 0.69 99 1031.0
20260506204759 15 347 0.0 0.0 0.13 0.66 0.66 99 1031.0
20260506204257 15 175 4.8 8.0 0.13 0.66 0.66 99 1030.8
20260506203754 15 322 0.0 0.0 0.18 0.64 0.64 99 1030.9
20260506203251 15 7 0.0 1.6 0.18 0.64 0.64 98 1030.9
20260506202748 15 328 0.0 0.0 0.00 0.61 0.61 98 1030.8
20260506202245 15 335 0.0 0.0 0.13 0.61 0.61 98 1030.9
20260506201741 15 310 3.2 3.2 0.13 0.61 0.61 98 1031.0
20260506201238 15 2 1.6 1.6 0.00 0.58 0.58 97 1030.9
20260506200735 15 340 0.0 0.0 0.18 0.58 0.58 97 1031.4
20260506200232 15 331 0.0 0.0 0.18 0.58 0.58 97 1031.2
20260506195728 15 321 0.0 0.0 0.00 0.56 0.56 97 1031.2
20260506195225 15 1 1.6 1.6 0.00 0.56 0.56 97 1031.2
20260506194722 15 199 3.2 3.2 0.00 0.56 0.56 97 1031.2
20260506194218 15 359 0.0 1.6 0.00 0.56 0.56 97 1031.2
20260506193716 15 340 0.0 0.0 0.00 0.56 0.56 97 1031.6
20260506193213 15 337 0.0 0.0 0.00 0.56 0.56 98 1031.6
20260506192709 15 335 0.0 0.0 0.00 0.56 0.56 98 1031.4
20260506192206 15 21 0.0 1.6 0.00 0.56 0.56 98 1031.5
20260506191657 15 343 0.0 0.0 0.00 0.56 0.56 98 1031.5
20260506191153 15 329 0.0 0.0 0.00 0.56 0.56 99 1031.7
20260506190650 15 324 0.0 0.0 0.00 0.56 0.56 99 1031.7
20260506190147 15 307 0.0 1.6 0.00 0.56 0.56 99 1031.8
20260506185644 15 328 0.0 0.0 0.13 0.56 0.56 99 1031.7
20260506185140 15 327 0.0 0.0 0.13 0.56 0.56 99 1031.9
20260506184638 15 341 0.0 0.0 0.00 0.53 0.53 99 1032.0
20260506184135 15 289 1.6 1.6 0.00 0.53 0.53 99 1031.9
20260506183632 15 325 0.0 1.6 0.00 0.53 0.53 99 1031.9
20260506183127 15 334 0.0 0.0 0.18 0.53 0.53 99 1032.0
20260506182625 15 338 0.0 0.0 0.13 0.51 0.51 99 1032.0
20260506182122 15 335 0.0 0.0 0.30 0.51 0.51 99 1032.2
20260506181620 15 28 0.0 1.6 0.30 0.48 0.48 99 1032.2
20260506181117 15 290 3.2 8.0 0.30 0.46 0.46 99 1032.7
20260506180614 15 131 4.8 8.0 0.36 0.43 0.43 99 1032.3
20260506180110 15 116 1.6 3.2 0.30 0.41 0.41 99 1032.2
20260506175606 15 324 0.0 0.0 0.30 0.38 0.38 99 1032.3
20260506175102 15 324 0.0 1.6 0.30 0.36 0.36 99 1032.2
20260506174602 15 325 0.0 0.0 0.30 0.33 0.33 99 1032.5
20260506174057 15 11 0.0 1.6 0.30 0.30 0.30 99 1032.3
20260506173555 15 334 0.0 0.0 0.30 0.28 0.28 98 1032.6
20260506173052 15 330 0.0 0.0 0.30 0.25 0.25 98 1032.7
20260506172549 15 331 0.0 0.0 0.30 0.23 0.23 98 1032.7
20260506172045 15 327 0.0 0.0 0.18 0.20 0.20 98 1032.7
20260506171543 15 335 0.0 0.0 0.13 0.18 0.18 98 1032.9
20260506171041 15 334 0.0 0.0 0.13 0.18 0.18 98 1032.8
20260506170538 15 338 0.0 0.0 0.18 0.15 0.15 98 1032.6
20260506170036 15 330 0.0 0.0 0.18 0.15 0.15 98 1032.8
20260506165534 15 332 0.0 0.0 0.13 0.13 0.13 98 1032.8
20260506165030 15 330 0.0 0.0 0.13 0.13 0.13 98 1032.8
20260506164527 15 346 0.0 0.0 0.00 0.10 0.10 98 1032.8
20260506164024 15 340 0.0 0.0 0.00 0.10 0.10 98 1033.1
20260506163520 15 344 0.0 0.0 0.18 0.10 0.10 97 1033.1
20260506163016 15 319 0.0 0.0 0.18 0.10 0.10 97 1033.4
20260506162512 15 319 0.0 0.0 0.00 0.08 0.08 97 1033.3
20260506162009 15 330 0.0 0.0 0.18 0.08 0.08 97 1033.3
20260506161507 15 352 0.0 0.0 0.18 0.08 0.08 96 1033.1
20260506161004 15 319 0.0 0.0 0.00 0.05 0.05 96 1033.3
20260506160502 15 337 0.0 0.0 0.00 0.05 0.05 96 1033.2
20260506155958 15 347 0.0 0.0 0.00 0.05 0.05 95 1033.2
20260506155456 15 353 0.0 0.0 0.00 0.05 0.05 96 1033.6
20260506153628 15 342 0.0 0.0 0.13 0.05 0.05 93 1034.2
20260506153125 15 328 0.0 0.0 0.00 0.03 0.03 93 1034.2
20260506152622 15 325 0.0 0.0 0.00 0.03 0.03 92 1034.4
20260506152120 15 340 0.0 0.0 0.00 0.03 0.03 92 1034.4
20260506151619 15 347 0.0 0.0 0.00 0.03 0.03 91 1034.3
20260506151115 15 333 0.0 0.0 0.00 0.03 0.03 90 1034.5
20260506150612 15 297 0.0 0.0 0.18 0.03 0.03 90 1034.6
20260506150109 15 333 0.0 0.0 0.18 0.03 0.03 90 1034.5
20260506145606 15 334 0.0 0.0 0.18 0.03 0.03 90 1034.5
20260506145103 15 329 0.0 0.0 0.00 0.00 0.00 90 1034.5
20260506144559 15 325 0.0 0.0 0.00 0.00 0.00 90 1034.5
20260506144056 15 327 0.0 0.0 0.00 0.00 0.00 88 1034.5
20260506143554 15 333 0.0 0.0 0.00 0.00 0.00 87 1034.4
20260506143052 15 322 0.0 0.0 0.00 0.00 0.00 86 1034.5
20260506142550 15 325 0.0 1.6 0.00 0.00 0.00 85 1034.7
20260506142048 15 338 0.0 0.0 0.00 0.00 0.00 85 1034.3
20260506141545 15 332 0.0 0.0 0.00 0.00 0.00 85 1034.5
20260506141044 15 325 0.0 0.0 0.00 0.00 0.00 86 1034.6
20260506140541 15 249 3.2 3.2 0.00 0.00 0.00 85 1034.6
20260506140038 15 143 1.6 3.2 0.00 0.00 0.00 86 1034.6
20260506135535 15 315 0.0 1.6 0.00 0.00 0.00 86 1034.3
20260506135031 15 141 3.2 3.2 0.00 0.00 0.00 86 1034.3
20260506134527 15 141 4.8 4.8 0.00 0.00 0.00 85 1034.5
20260506134024 15 305 0.0 1.6 0.00 0.00 0.00 86 1034.5
20260506133521 15 336 3.2 3.2 0.00 0.00 0.00 86 1034.5
20260506133018 15 323 0.0 0.0 0.00 0.00 0.00 87 1034.4
20260506132515 15 357 1.6 1.6 0.00 0.00 0.00 86 1034.7
20260506132012 15 356 1.6 1.6 0.00 0.00 0.00 86 1034.7
20260506131509 15 339 0.0 0.0 0.00 0.00 0.00 87 1035.0
20260506131006 15 174 1.6 3.2 0.00 0.00 0.00 87 1035.3
20260506130502 15 7 1.6 1.6 0.00 0.00 0.00 87 1035.3
20260506130000 15 154 3.2 3.2 0.00 0.00 0.00 87 1035.5
20260506125458 14 325 0.0 0.0 0.00 0.00 0.00 88 1035.2
20260506124955 14 329 0.0 0.0 0.00 0.00 0.00 88 1035.2
20260506124453 14 313 1.6 1.6 0.00 0.00 0.00 87 1034.7
20260506123951 14 1 0.0 1.6 0.00 0.00 0.00 87 1034.5
20260506123449 14 328 0.0 0.0 0.00 0.00 0.00 88 1035.1
20260506122946 14 322 0.0 0.0 0.00 0.00 0.00 88 1035.2
20260506122443 14 328 0.0 0.0 0.00 0.00 0.00 88 1035.0
20260506121941 14 335 0.0 0.0 0.00 0.00 0.00 89 1034.8
20260506121438 14 348 0.0 0.0 0.00 0.00 0.00 90 1034.9
20260506120934 13 331 0.0 0.0 0.00 0.00 0.00 89 1035.1
20260506120432 13 328 0.0 0.0 0.00 0.00 0.00 90 1035.2
20260506115929 13 296 0.0 0.0 0.00 0.00 0.00 91 1035.1
20260506115427 13 323 0.0 0.0 0.00 0.00 0.00 93 1035.1
20260506114925 13 331 0.0 0.0 0.00 0.00 0.00 93 1035.0
20260506114423 13 334 0.0 0.0 0.00 0.00 0.00 93 1035.0
20260506113921 13 340 0.0 0.0 0.00 0.00 0.00 93 1035.0
20260506113419 13 343 0.0 0.0 0.00 0.00 0.00 94 1035.1
20260506112915 13 343 0.0 0.0 0.00 0.00 0.00 94 1035.1
20260506112413 13 337 0.0 0.0 0.00 0.00 0.00 94 1035.2
20260506111910 13 329 0.0 0.0 0.00 0.00 0.00 94 1035.2
20260506111408 13 325 0.0 0.0 0.00 0.00 0.00 94 1035.3
20260506110905 13 2 0.0 0.0 0.00 0.00 0.00 94 1035.2
20260506110402 12 326 0.0 0.0 0.00 0.00 0.00 95 1035.2
20260506105859 12 343 0.0 0.0 0.00 0.00 0.00 95 1035.1
20260506105355 12 299 0.0 0.0 0.00 0.00 0.00 96 1035.1
20260506104853 12 319 0.0 0.0 0.00 0.00 0.00 96 1035.4
20260506104350 12 331 0.0 0.0 0.00 0.00 0.00 96 1035.2
20260506103848 12 331 0.0 0.0 0.00 0.00 0.00 97 1035.2
20260506103345 12 327 0.0 0.0 0.00 0.00 0.00 97 1035.1
20260506102842 12 326 0.0 0.0 0.00 0.00 0.00 97 1035.2
20260506102340 12 324 0.0 0.0 0.00 0.00 0.00 97 1035.3
20260506101837 12 347 0.0 0.0 0.00 0.00 0.00 97 1034.9
20260506101333 12 323 0.0 0.0 0.00 0.00 0.00 97 1035.3
20260506100831 12 316 0.0 0.0 0.00 0.00 0.00 97 1035.0
20260506100329 12 340 0.0 0.0 0.00 0.00 0.00 97 1035.1
20260506095827 12 327 0.0 0.0 0.00 0.00 0.00 97 1035.1
20260506095324 12 339 0.0 0.0 0.00 0.00 0.00 96 1035.1
20260506094821 12 339 0.0 0.0 0.00 0.00 0.00 96 1035.1
20260506094320 12 339 0.0 0.0 0.00 0.00 0.00 96 1035.1
20260506093817 12 340 0.0 0.0 0.00 0.00 0.00 96 1035.1
20260506093314 13 339 0.0 0.0 0.00 0.00 0.00 96 1035.1
20260506092812 13 341 0.0 0.0 0.00 0.00 0.00 95 1035.1
20260506092309 13 319 0.0 0.0 0.00 0.00 0.00 95 1035.1
20260506091807 13 318 0.0 0.0 0.00 0.00 0.00 95 1035.2
20260506091304 13 328 0.0 0.0 0.00 0.00 0.00 95 1035.0
20260506090802 13 323 0.0 0.0 0.00 0.00 0.00 95 1035.3
20260506090259 13 324 0.0 0.0 0.00 0.00 0.00 94 1035.2
20260506085755 13 324 0.0 0.0 0.00 0.00 0.00 93 1035.3
20260506085252 13 330 0.0 0.0 0.00 0.00 0.00 93 1035.1
20260506084748 13 331 0.0 0.0 0.00 0.00 0.00 93 1035.1
20260506084245 13 330 0.0 0.0 0.00 0.00 0.00 94 1035.5
20260506083742 13 329 0.0 0.0 0.00 0.00 0.00 94 1035.6
20260506083240 13 330 0.0 0.0 0.00 0.00 0.00 94 1035.4
20260506082737 13 330 0.0 0.0 0.00 0.00 0.00 94 1035.6
20260506082232 13 330 0.0 0.0 0.00 0.00 0.00 94 1035.3
20260506081730 13 329 0.0 0.0 0.00 0.00 0.00 93 1035.6
20260506081227 14 330 0.0 0.0 0.00 0.00 0.00 93 1035.7
20260506080725 14 330 0.0 0.0 0.00 0.00 0.00 92 1035.4
20260506080221 14 330 0.0 0.0 0.00 0.00 0.00 92 1035.4
20260506073206 15 345 0.0 0.0 0.00 0.00 0.00 91 1035.6
20260506072702 15 357 0.0 0.0 0.00 0.00 0.00 89 1035.5
20260506072200 15 345 0.0 0.0 0.00 0.00 0.00 88 1035.7
20260506071657 15 345 0.0 0.0 0.00 0.00 0.00 87 1035.6
20260506071155 15 344 0.0 0.0 0.00 0.00 0.00 87 1035.5
20260506070651 15 346 0.0 0.0 0.00 0.00 0.00 87 1035.4
20260506070148 15 349 0.0 1.6 0.00 0.00 0.00 87 1035.7
20260506062126 16 332 0.0 0.0 0.00 0.00 0.00 85 1035.4
20260506061621 16 339 0.0 0.0 0.00 0.00 0.00 85 1035.6
20260506061120 16 340 0.0 0.0 0.00 0.00 0.00 85 1035.6
20260506060618 16 333 0.0 0.0 0.00 0.00 0.00 84 1035.4
20260506060114 16 325 0.0 1.6 0.00 0.00 0.00 83 1035.8
20260506051046 15 340 0.0 0.0 0.00 0.00 0.00 87 1035.6
20260506050544 15 324 0.0 0.0 0.00 0.00 0.00 88 1035.6
20260506045034 16 343 0.0 0.0 0.00 0.00 0.00 83 1035.5
20260506044533 16 346 0.0 0.0 0.00 0.00 0.00 82 1035.3
20260506044029 16 339 0.0 0.0 0.00 0.00 0.00 82 1034.9
20260506043526 16 335 0.0 1.6 0.00 0.00 0.00 82 1035.3
20260506043025 16 323 0.0 0.0 0.00 0.00 0.00 82 1035.4
20260506042523 16 335 0.0 0.0 0.00 0.00 0.00 83 1035.4
20260506042021 16 319 1.6 1.6 0.00 0.00 0.00 84 1035.6
20260506041519 16 330 0.0 0.0 0.00 0.00 0.00 85 1035.3
20260506041016 16 330 0.0 1.6 0.00 0.00 0.00 86 1035.6
20260506040514 16 357 1.6 1.6 0.00 0.00 0.00 86 1035.5
20260506040009 16 332 0.0 0.0 0.00 0.05 0.05 84 1035.4
20260506035506 15 338 0.0 0.0 0.00 0.05 0.05 85 1035.6
20260506035003 15 321 0.0 0.0 0.00 0.05 0.05 87 1035.4
20260506034501 16 320 0.0 1.6 0.00 0.05 0.05 85 1035.4
20260506033957 16 334 0.0 0.0 0.00 0.05 0.05 83 1035.3
20260506033455 16 334 0.0 0.0 0.00 0.05 0.05 84 1035.3
20260506032951 15 319 0.0 0.0 0.00 0.05 0.05 85 1035.4
20260506032449 15 334 0.0 0.0 0.00 0.05 0.05 86 1035.2
20260506031945 16 335 0.0 0.0 0.00 0.05 0.05 86 1035.1
20260506031443 16 345 0.0 0.0 0.00 0.05 0.05 86 1035.1
20260506030940 15 325 0.0 0.0 0.00 0.05 0.05 85 1035.5
20260506030438 15 324 0.0 0.0 0.00 0.05 0.05 85 1035.4
20260506025934 16 321 0.0 0.0 0.00 0.05 0.05 85 1035.4
20260506025431 16 347 0.0 0.0 0.00 0.05 0.05 83 1035.2
20260506024928 16 339 0.0 0.0 0.00 0.05 0.05 84 1035.4
20260506024425 16 338 0.0 0.0 0.00 0.05 0.05 84 1035.5
20260506023921 16 337 0.0 0.0 0.00 0.05 0.05 84 1035.4
20260506023418 16 321 0.0 0.0 0.00 0.05 0.05 85 1035.4
20260506022914 15 322 0.0 0.0 0.00 0.05 0.05 86 1035.4
20260506022412 15 322 0.0 0.0 0.00 0.05 0.05 87 1035.3
20260506021910 15 321 0.0 0.0 0.00 0.05 0.05 88 1035.4
20260506021407 15 324 0.0 0.0 0.00 0.05 0.05 88 1035.4
20260506020904 15 325 0.0 0.0 0.00 0.05 0.05 87 1035.4
20260506020402 15 329 0.0 0.0 0.00 0.05 0.05 87 1035.3
20260506015859 15 327 0.0 0.0 0.00 0.05 0.05 87 1035.2
20260506015356 15 318 0.0 1.6 0.00 0.05 0.05 87 1035.1
20260506014853 16 327 0.0 0.0 0.00 0.05 0.05 87 1035.2
20260506014350 16 328 0.0 0.0 0.00 0.05 0.05 86 1035.2
20260506013846 16 324 0.0 0.0 0.00 0.05 0.05 84 1035.2
20260506013344 16 337 0.0 0.0 0.00 0.05 0.05 87 1035.2
20260506012840 16 327 0.0 0.0 0.00 0.05 0.05 86 1035.1
20260506012337 16 341 0.0 0.0 0.00 0.05 0.05 85 1034.8
20260506011835 16 337 0.0 0.0 0.00 0.05 0.05 86 1035.0
20260506011331 16 355 0.0 0.0 0.00 0.05 0.05 89 1035.0
20260506010829 16 335 0.0 0.0 0.00 0.05 0.05 88 1034.9
20260506010327 16 330 0.0 1.6 0.00 0.05 0.05 89 1034.9
20260506005823 16 325 0.0 0.0 0.00 0.05 0.05 90 1035.2
20260506005320 16 175 0.0 1.6 0.00 0.05 0.05 89 1035.1
20260506004816 16 319 0.0 0.0 0.00 0.05 0.05 89 1034.7
20260506004314 16 340 0.0 0.0 0.00 0.05 0.05 89 1034.9
20260506003809 16 319 0.0 0.0 0.00 0.05 0.05 90 1034.8
20260506003306 16 338 0.0 0.0 0.00 0.05 0.05 90 1034.7
20260506002802 16 327 0.0 0.0 0.00 0.05 0.05 89 1035.0
20260506002259 16 314 0.0 1.6 0.00 0.05 0.05 88 1034.8
20260506001754 17 328 0.0 0.0 0.00 0.05 0.05 85 1034.8
20260506001252 17 332 0.0 0.0 0.00 0.05 0.05 83 1034.6
20260506000749 17 350 0.0 1.6 0.00 0.05 0.05 83 1034.7
20260506000247 17 328 0.0 0.0 0.00 0.05 0.05 83 1034.6
20260505235743 17 337 0.0 0.0 0.00 0.05 0.05 82 1034.9
20260505235241 16 332 0.0 0.0 0.00 0.05 0.05 84 1034.7
20260505234738 16 326 0.0 0.0 0.00 0.05 0.05 85 1034.7
20260505234235 16 340 0.0 0.0 0.00 0.05 0.05 87 1034.9
20260505233731 16 320 0.0 0.0 0.00 0.05 0.05 87 1034.7
20260505233230 17 317 0.0 0.0 0.00 0.05 0.05 87 1034.9
20260505232726 17 322 0.0 0.0 0.00 0.05 0.05 85 1034.6
20260505232224 17 347 0.0 1.6 0.00 0.05 0.05 83 1034.2